116 serials | spyremover v3.04

Date Name Success Rate
2009-10-17 06:18:15 Acoustica CD DVD Label Maker V3.04 13%
2009-10-17 06:18:22 ActivityMaker V3.04 56%
2009-10-17 06:20:19 Church Contribution System V3.04 11%
2009-10-17 06:20:19 CIA XPSuite V3.04 19%
2009-10-17 06:20:25 Clean It V3.04 17%
2009-10-17 06:22:11 Easy SpyRemover V3.2-PirateK 16%
2009-10-17 06:25:01 ICash V3.04 0%
2009-10-17 06:25:01 ICash V3.04 GERMAN 0%
2009-10-17 06:25:17 IVM Telephone Answering Attendant V3.04 0%
2009-10-17 06:25:48 Just Checking V3.04 0%
2009-10-17 06:27:46 Magic Ball V3.04 0%
2009-10-17 06:28:04 Moony V3.04 0%
2009-10-17 06:29:59 PC-Adresszz Server V3.04 German 0%
2009-10-17 06:30:06 Photocopier Pro V3.04 33%
2009-10-17 06:31:38 Rocscience CPillar V3.04 0%
2009-10-17 06:32:28 Software Technology VAZ Modular VSTi DXi V3.04 0%
2009-10-17 06:34:15 UserLock V3.04 0%
2009-10-17 06:35:00 Vizimag V3.04 0%
2009-10-17 06:35:38 Web Album Creator V3.04 0%
2009-10-17 06:35:45 WinReporter V3.04 0%
2009-10-22 23:27:25 Audio Playback Recorder V3.04 0%
2009-10-22 23:45:52 CIA XPSuite V3.04.Retail 0%
2009-10-22 23:46:26 DialogBlocks V3.04 ANSI 0%
2009-10-22 23:46:26 DialogBlocks V3.04 UNICODE 0%
2009-10-22 23:49:20 PC-Adresszz Server V3.04 German 0%
2009-10-22 23:50:12 Traction Software Batch And Print Pro V3.04 0%
2009-10-22 23:50:26 VariCAD 2008.v3.04 0%
2009-10-22 23:50:26 VariCAD 2008.x64.v3.04 0%
2011-09-08 09:59:38 ActivityMaker v3.04 0%
2011-09-08 10:00:04 Address Solution v3.04 by LineZer0 0%
2011-09-08 10:00:10 Addweb v3.04 0%
2011-09-08 10:00:39 Adobe PhoToShop LE v3.04 for WIndows 0%
2011-09-08 10:00:42 Adobe PhotoShop v3.04 LE Win 0%
2011-09-08 10:00:42 Adobe PhotoShop v3.04 Pro and v3.05 0%
2011-09-08 10:10:06 Audio Playback Recorder v3.04 0%
2011-09-08 10:21:30 Broadband Wizard v3.04 0%
2011-09-08 10:26:03 Chores & Rewards v3.04 0%
2011-09-08 10:26:03 Chores & Rewards v3.04 0%
2011-09-08 10:26:08 CIA XPSuite V3.04 0%
2011-09-08 10:26:28 Clean It v3.04 0%
2011-09-08 10:32:43 CSE HTML Validator v3.04 0%
2011-09-08 10:32:57 Cumberland Family Tree v3.04 0%
2011-09-08 10:33:23 Cyberspace HQ AddWeb v3.04 0%
2011-09-08 10:42:34 DDClip Pro v3.04 0%
2011-09-08 10:43:08 Desktop Referee v3.04 0%
2011-09-08 10:43:23 DialDictate v3.10 v3.04 0%
2011-09-08 10:44:28 Dolphin Smalltalk v3.04 0%
2011-09-08 10:45:27 DVD To MP3 Ripper v3.04 0%
2011-09-08 10:49:20 EmEditor v3.04 Beta 2 0%
2011-09-08 10:50:26 Excel TeleTools Express v3.04 0%
2011-09-08 10:50:26 Excele TeleTools Express v3.04 0%
2011-09-08 10:50:52 EyeCatalog v3.04 0%
2011-09-08 10:53:54 FaSoft n-Track Studio v3.04 Working 0%
2011-09-08 10:54:47 Find It v3.04 0%
2011-09-08 10:55:05 Firewall Plus v3.04 for Win-NT 0%
2011-09-08 10:55:05 Firewall Plus v3.04 WinNT 0%
2011-09-08 10:56:20 Forward Mail v3.04 0%
2011-09-08 11:03:00 Golden Software MapViewer v3.04 0%
2011-09-08 11:06:30 Hero DVD Player v3.04 0%
2011-09-08 11:09:36 HPC Notes v3.04 Desktop Edition 0%
2011-09-08 11:10:06 HWINFO v3.04 0%
2011-09-08 11:14:45 ImpulseStudio v3.04 0%
2011-09-08 11:15:57 IntelliCAD 2001 Pro v3.04 0%
2011-09-08 11:16:15 Internet Angel v3.04 0%
2011-09-08 11:16:19 Internet Creator v3.04 Win 95 0%
2011-09-08 11:17:12 Ircle v3.04 0%
2011-09-08 11:21:58 Konvertor v3.04 0%
2011-09-08 11:26:37 Linplug Delta III VSTi v3.04 0%
2011-09-08 11:28:44 Mail List King v3.04 0%
2011-09-08 11:29:05 Main Actor v3.04 0%
2011-09-08 11:29:17 MapEdit V3.04 0%
2011-09-08 11:33:31 Monthly Bill Manager v3.04 0%
2011-09-08 11:33:33 Moony v3.04 Multilingual 0%
2011-09-08 11:40:08 Namo Batch v3.04 0%
2011-09-08 11:42:00 NetRoom +v3.04 Memory Manager by Helix 0%
2011-09-08 11:42:00 NetRoom +v3.04 MemoryManager by Helix 0%
2011-09-08 11:42:00 NetRoom v3.04 0%
2011-09-08 11:42:00 NetRoom v3.04 Memory Manager by Helix 0%
2011-09-08 11:42:00 NetRoom v3.04 Memory Managerby Helix 0%
2011-09-08 11:42:39 Next FTP v3.04 0%
2011-09-08 12:25:23 Mush Client v3.04 0%
2011-09-08 12:28:18 Partition Magic v3.04 0%
2011-09-08 12:32:29 PhotoShop Pro v3.04 and v3.05 0%
2011-09-08 12:33:22 Photoshop v3.04 0%
2011-09-08 12:34:14 Planet Split v3.04 0%
2011-09-08 12:40:39 Ready To Print Organizer v3.04 0%
2011-09-08 12:43:22 RestoreIT! Personal v3.04 100%
2011-09-08 12:43:43 River Past Audio Converter v3.04 by CHiCNCREAM 0%
2011-09-08 12:43:47 River Past Video Slice v3.04 0%
2011-09-08 12:45:18 Save N Sync v3.04 0%
2011-09-08 12:46:17 Secere Family Tree v3.04 0%
2011-09-08 12:46:46 Selteco Menu Maker v3.04 0%
2011-09-08 12:46:46 Send Internet Mail Gold v3.04 0%
2011-09-08 12:48:14 SkimEdit v3.04 0%
2011-09-08 12:48:34 SlovoEd English.German-Englisch v3.04 0%
2011-09-08 12:50:56 Speaking Clock Deluxe v3.04 0%
2011-09-08 12:50:56 Speaking Clock Deluxe v3.04 by LAXiTY 0%
2011-09-08 12:52:26 TempClean v3.04 0%
2011-09-08 12:52:26 TempClean v3.04 by LasH 0%
2011-09-08 12:53:51 Thumb Print Pro v3.04 0%
2011-09-08 12:57:45 SpyRemover v2.27 60%
2011-09-08 12:58:00 Squizz v3.04 0%
2011-09-08 13:00:10 Sureview Extended v3.04 0%
2011-09-08 13:00:10 Sureview Extended v3.04 by MANiFEST 0%
2011-09-08 13:07:56 Ultra Fractal v3.04 0%
2011-09-08 13:07:58 Ultra Lingua v3.04 French-English 0%
2011-09-08 13:07:58 Ultra Lingua v3.04 SP 0%
2011-09-08 13:12:56 VisuIco v3.04 french by FFF 0%
2011-09-08 13:12:58 Vizimag v3.04 0%
2011-09-08 13:15:50 Wavesurround Pro v3.04 0%
2011-09-08 13:15:57 Web Album Creator v3.04 0%
2011-09-08 13:18:49 WinGate v3.04 0%
2011-09-08 13:19:40 WinRoute v3.04 0%
2011-09-08 13:23:48 Zip Backup to CD v3.04 RC 0%
2011-09-08 13:24:02 Zoc v2.11-2.13 OS/2&WIN95 v3.04 0%
2012-12-12 23:19:32 Ocster Backup Pro v3.04 0%